Location: Dugenta
(41.1333°N, 14.4500°E)
Time: 10:25:39
(UTC+00:00)

Cosmos 1503 Rocket - Pass Details

Date: 03 March 2021
Orbit: 753 x 790 km, 74.0° (Epoch: 20 April)

Event Time Altitude Azimuth Distance (km) Brightness Sun altitude
Rises 18:31:00 0° 337° (NNW) 3,224 7.7 -18.7°
Reaches altitude 10° 18:33:24 10° 335° (NNW) 2,290 6.9 -19.2°
Maximum altitude 18:38:32 67° 254° (WSW) 819 4.3 -20.1°
Drops below altitude 10° 18:43:37 10° 173° (S) 2,268 6.3 -21.1°
Enters shadow 18:44:32 - 171° (S) 2,619 6.6 -21.3°
